Location: Brunembert
(50.7122°N, 1.8935°E)
Time: 03:36:41
(UTC+00:00)

SL-4 R/B - Pass Details

Date: 22 April 2021
Orbit: 427 x 663 km, 51.6° (Epoch: 06 May)

Event Time Altitude Azimuth Distance (km) Brightness Sun altitude
Rises 19:45:05 0° 207° (SSW) 2,742 5.6 -7.4°
Reaches altitude 10° 19:47:34 10° 194° (SSW) 1,893 4.6 -7.7°
Maximum altitude 19:51:06 24° 139° (SE) 1,251 3.3 -8.2°
Drops below altitude 10° 19:54:50 10° 85° (E) 2,009 4.4 -8.7°
Sets 19:57:32 0° 73° (ENE) 2,952 5.4 -9.1°
